This demonstration page uses our WeatherBlox Daily Observations layout. Learn more.

40.92945, -100.16068

Hourly Observations for March 5, 2018

Temp ( °F °C ) Dew Point ( °F °C ) Humidity (%) Winds ( mph kmh ) Pressure ( in mb ) Visibility ( mi km ) Precip ( " mm )
12:15 am 00:15 Cloudy with Light Rain 37 2.6 33 0.3 85 85 NNW 26 43 29.77 1008 5 8.0467 0 0
12:35 am 00:35 Cloudy with Mist and Fog 36 2.2 32 0.1 86 86 NNW 23 37 29.77 1008 5 8.0467 0 0
12:55 am 00:55 Cloudy 36 2 32 0 87 87 NNW 26 43 29.77 1008 10 16.0934 0 0
1:15 am 01:15 Cloudy 36 2.4 32 -0.2 83 83 NNW 23 37 29.77 1008 10 16.0934 0 0
1:35 am 01:35 Cloudy 37 2.6 31 -0.7 79 79 NW 23 37 29.77 1008 10 16.0934 0 0
1:55 am 01:55 Cloudy 37 2.5 28 -2 73 73 NNW 25 41 29.8 1009 10 16.0934 0 0
2:15 am 02:15 Cloudy 36 2.1 28 -2.1 74 74 NNW 25 41 29.8 1009 10 16.0934 0 0
2:35 am 02:35 Cloudy 35 1.7 27 -2.6 73 73 NW 25 41 29.8 1009 10 16.0934 0 0
2:55 am 02:55 Cloudy 35 1.6 27 -2.8 73 73 NW 24 39 29.8 1009 10 16.0934 0 0
3:15 am 03:15 Cloudy 35 1.5 27 -2.8 73 73 NW 22 35 29.8 1009 10 16.0934 0 0
3:35 am 03:35 Cloudy 35 1.5 27 -2.6 74 74 NW 25 41 29.8 1009 10 16.0934 0 0
3:55 am 03:55 Cloudy 35 1.5 27 -2.7 74 74 NW 23 37 29.83 1010 10 16.0934 0 0
4:15 am 04:15 Windy with Snow Likely 34 1.1 28 -2.1 79 79 NW 21 33 29.85 1011 3 4.82802 0 0
4:35 am 04:35 Cloudy with Light Snow 33 0.6 29 -1.4 87 87 NW 16 26 29.85 1011 5 8.0467 0 0
4:55 am 04:55 Cloudy 33 0.6 30 -1.3 87 87 NW 15 24 29.85 1011 10 16.0934 0 0
5:15 am 05:15 Cloudy 33 0.7 29 -1.4 86 86 NW 21 33 29.88 1012 10 16.0934 0 0
5:35 am 05:35 Cloudy 32 0.1 28 -2.2 85 85 NW 25 41 29.88 1012 10 16.0934 0 0
5:55 am 05:55 Cloudy 32 0 26 -3.2 79 79 NW 20 31 29.91 1013 10 16.0934 0 0
6:15 am 06:15 Cloudy 32 0.1 26 -3.3 78 78 NW 22 35 29.91 1013 10 16.0934 0 0
6:35 am 06:35 Cloudy 32 0.1 26 -3.6 76 76 NW 18 30 29.91 1013 10 16.0934 0 0
6:55 am 06:55 Mostly Cloudy 32 0 23 -5.1 69 69 NW 25 41 29.91 1013 10 16.0934 0 0
7:15 am 07:15 Cloudy 32 0 23 -5.2 68 68 NW 20 31 29.91 1013 10 16.0934 0 0
7:35 am 07:35 Cloudy 32 0 23 -4.8 70 70 WNW 22 35 29.94 1014 10 16.0934 0 0
7:55 am 07:55 Mostly Cloudy 32 -0.1 23 -5 70 70 WNW 18 30 29.94 1014 10 16.0934 0 0
8:15 am 08:15 Sunny 32 0 21 -5.9 65 65 WNW 25 41 29.94 1014 10 16.0934 0 0
8:35 am 08:35 Sunny 33 0.5 20 -6.5 60 60 WNW 28 44 29.94 1014 10 16.0934 0 0
8:55 am 08:55 Sunny 34 1 18 -7.7 53 53 WNW 33 54 29.94 1014 10 16.0934 0 0
9:15 am 09:15 Sunny 34 1.2 17 -8.2 50 50 NW 33 54 29.94 1014 10 16.0934 0 0
9:35 am 09:35 Sunny 35 1.7 18 -7.9 49 49 WNW 36 57 29.94 1014 10 16.0934 0 0
9:55 am 09:55 Sunny 36 2 17 -8.3 47 47 NW 39 63 29.94 1014 10 16.0934 0 0
10:15 am 10:15 Sunny 37 2.5 18 -7.7 47 47 WNW 36 57 29.91 1013 10 16.0934 0 0
10:35 am 10:35 Partly Cloudy 37 2.9 17 -8.1 45 45 NW 41 67 29.91 1013 10 16.0934 0 0
10:55 am 10:55 Mostly Cloudy 38 3.1 18 -7.8 45 45 WNW 37 59 29.91 1013 10 16.0934 0 0
11:15 am 11:15 Partly Cloudy 39 3.8 18 -7.9 43 43 NW 39 63 29.91 1013 10 16.0934 0 0
11:35 am 11:35 Mostly Cloudy 40 4.6 19 -7.5 41 41 NW 35 56 29.91 1013 10 16.0934 0 0
11:55 am 11:55 Mostly Cloudy 40 4.7 18 -7.9 40 40 NW 39 63 29.91 1013 10 16.0934 0 0
12:15 pm 12:15 Mostly Cloudy 42 5.6 18 -7.8 38 38 NW 45 72 29.88 1012 10 16.0934 0 0
12:35 pm 12:35 Cloudy 42 5.4 16 -8.7 36 36 NW 43 69 29.88 1012 10 16.0934 0 0
12:55 pm 12:55 Cloudy 43 6 18 -7.7 37 37 NW 46 74 29.88 1012 10 16.0934 0 0
1:15 pm 13:15 Cloudy 44 6.6 17 -8.1 34 34 WNW 44 70 29.85 1011 10 16.0934 0 0
1:35 pm 13:35 Cloudy 43 6.1 17 -8.6 34 34 NW 46 74 29.88 1012 10 16.0934 0 0
1:55 pm 13:55 Cloudy 43 6.3 16 -9 33 33 NW 43 69 29.85 1011 10 16.0934 0.01 0.254
2:15 pm 14:15 Cloudy 45 7 17 -8.6 32 32 NW 41 67 29.85 1011 10 16.0934 0 0
2:35 pm 14:35 Cloudy 46 7.7 17 -8.6 31 31 NW 43 69 29.85 1011 10 16.0934 0 0
2:55 pm 14:55 Cloudy 46 7.5 16 -8.8 31 31 WNW 44 70 29.85 1011 10 16.0934 0 0
3:15 pm 15:15 Cloudy 46 8 17 -8.6 30 30 WNW 51 81 29.85 1011 10 16.0934 0 0
3:35 pm 15:35 Cloudy 46 7.8 16 -8.7 30 30 NW 40 65 29.85 1011 10 16.0934 0 0
3:55 pm 15:55 Cloudy 47 8.6 17 -8.1 30 30 NW 43 69 29.83 1010 10 16.0934 0 0
4:15 pm 16:15 Partly Cloudy 46 7.7 16 -8.9 30 30 NW 48 78 29.85 1011 10 16.0934 0 0
4:35 pm 16:35 Partly Cloudy 45 7.1 15 -9.3 30 30 NW 44 70 29.85 1011 10 16.0934 0 0
4:55 pm 16:55 Sunny 45 7 16 -8.8 32 32 NW 37 59 29.85 1011 10 16.0934 0 0
5:15 pm 17:15 Partly Cloudy 44 6.8 16 -8.8 32 32 WNW 41 67 29.88 1012 10 16.0934 0 0
5:35 pm 17:35 Sunny 44 6.5 17 -8.3 34 34 NW 35 56 29.88 1012 10 16.0934 0 0
5:55 pm 17:55 Sunny 42 5.5 17 -8.4 36 36 NW 35 56 29.88 1012 10 16.0934 0 0
6:15 pm 18:15 Partly Cloudy 42 5.3 19 -7.3 40 40 WNW 36 57 29.91 1013 10 16.0934 0 0
6:35 pm 18:35 Partly Cloudy 40 4.6 18 -7.6 41 41 WNW 33 54 29.91 1013 10 16.0934 0 0
6:55 pm 18:55 Partly Cloudy 40 4.4 17 -8.2 40 40 NW 32 52 29.94 1014 10 16.0934 0 0
7:15 pm 19:15 Mostly Cloudy 39 4.1 18 -7.7 42 42 WNW 28 44 29.94 1014 10 16.0934 0 0
7:35 pm 19:35 Mostly Cloudy 39 3.8 19 -7.5 44 44 NW 26 43 29.94 1014 10 16.0934 0 0
7:55 pm 19:55 Partly Cloudy 38 3.3 19 -7.4 46 46 WNW 31 50 29.94 1014 10 16.0934 0 0
8:15 pm 20:15 Clear 37 3 19 -7 48 48 WNW 26 43 29.94 1014 10 16.0934 0 0
8:35 pm 20:35 Clear 37 3 18 -7.7 46 46 WNW 30 48 29.94 1014 10 16.0934 0 0
8:55 pm 20:55 Clear 37 2.7 18 -7.8 46 46 WNW 30 48 29.94 1014 10 16.0934 0 0
9:15 pm 21:15 Clear 37 2.6 17 -8.2 45 45 WNW 30 48 29.94 1014 10 16.0934 0 0
9:35 pm 21:35 Clear 37 2.6 17 -8.2 45 45 WNW 29 46 29.94 1014 10 16.0934 0 0
9:55 pm 21:55 Clear 37 2.5 17 -8.2 46 46 WNW 26 43 29.97 1015 10 16.0934 0 0
10:15 pm 22:15 Clear 37 2.5 17 -8.2 46 46 WNW 30 48 29.97 1015 10 16.0934 0 0
10:35 pm 22:35 Clear 37 2.5 16 -8.7 44 44 WNW 31 50 29.97 1015 10 16.0934 0 0
10:55 pm 22:55 Clear 37 2.5 16 -8.7 44 44 WNW 29 46 29.97 1015 10 16.0934 0 0
11:15 pm 23:15 Clear 36 2 17 -8.5 46 46 WNW 30 48 29.97 1015 10 16.0934 0 0
11:35 pm 23:35 Clear 36 2 17 -8.5 46 46 WNW 31 50 29.97 1015 10 16.0934 0 0
11:55 pm 23:55 Clear 36 2 17 -8.5 46 46 WNW 30 48 29.97 1015 10 16.0934 0 0

Powered by AerisWeather